Location: Balaclava NSW 2575, Australia
(34.4510°S, 150.4953°E)
Time: 11:20:00
(UTC+10:00)

X-37B - Pass Details

Date: 07 August 2021
Orbit: 381 x 393 km, 45.0° (Epoch: 29 August)

Event Time Altitude Azimuth Distance (km) Brightness Sun altitude
Rises 18:01:04 0° 233° (SW) 2,315 5.1 -8.6°
Reaches altitude 10° 18:03:16 10° 225° (SW) 1,452 3.9 -9.0°
Maximum altitude 18:06:21 38° 154° (SSE) 627 1.3 -9.7°
Enters shadow 18:08:47 14° 88° (E) 1,203 2.4 -10.1°
